SCP
1 1 1 1 1 1 1 1 1 1 1 1 1 1 1 1 1 0 0 1 1 1 1 1 1 1 1 1 1 1 1 1 1 1 1 1 1 1 1 1 1 1 1
1 1 1 1 1 1 1 1 1 1 1 1 1 1 1 1 1 0 0 1 1 1 1 1 1 1 1 1 1 1 1 1 1 1 1 1 1 1 1 1 1 1 1
1 1 1 1 1 1 1 1 1 1 1 1 1 1 1 1 0 0 0 0 1 1 1 2 1 1 1 1 1 1 1 1 1 1 1 1 1 1 1 1 1 1 1
1 1 1 1 1 1 1 1 1 1 1 0 0 1 1 0 0 0 0 0 0 1 1 1 2 2 1 1 1 1 1 1 1 1 1 1 1 1 1 1 1 1 1
1 1 1 1 1 1 1 1 1 1 0 0 0 0 0 0 0 0 0 0 0 1 1 1 1 2 2 2 2 1 1 1 1 1 2 2 2 2 1 1 1 1 1
1 1 1 1 1 1 1 1 1 1 0 0 0 0 0 0 0 0 0 0 0 1 1 1 1 1 2 2 2 2 1 1 1 1 2 2 2 2 1 1 1 1 1
1 1 1 1 1 0 0 0 0 0 0 0 0 0 0 0 0 0 0 0 1 1 1 1 1 1 1 1 1 2 2 1 1 1 2 2 2 2 2 1 1 1 1
1 2 2 1 1 1 1 1 1 0 0 0 0 0 0 0 0 0 1 1 1 1 1 1 1 1 1 1 1 1 1 1 1 1 1 2 2 2 2 1 1 1 1
2 3 3 2 1 1 1 1 1 0 0 1 1 1 1 1 1 1 1 1 1 1 1 1 1 1 1 1 1 1 1 1 1 1 1 2 2 2 2 1 1 1 2
2 3 3 2 1 1 1 1 1 0 1 1 1 1 1 1 1 1 1 1 1 1 1 1 1 1 1 1 1 1 1 1 1 1 1 1 2 2 2 2 2 2 2
1 2 2 2 1 1 1 1 0 0 1 1 1 1 1 2 2 1 1 1 1 1 1 1 1 1 1 1 1 1 1 1 1 1 1 1 2 2 2 2 2 3 3
1 1 1 1 1 1 1 1 1 1 1 1 1 1 2 2 2 2 2 2 1 1 1 1 1 1 1 1 1 1 1 1 1 1 1 2 2 2 2 2 3 3 3
1 1 1 1 1 1 1 1 1 1 1 1 1 1 2 2 2 2 2 2 2 1 1 1 0 1 1 1 1 1 1 1 1 1 1 1 1 1 2 2 3 4 4
0 0 0 1 1 1 1 1 1 1 1 1 1 2 2 2 2 3 3 3 3 2 1 1 0 0 1 1 1 1 1 1 1 1 1 1 1 1 1 2 3 4 4
1 1 0 1 1 1 1 1 1 1 1 1 1 1 2 2 2 3 3 3 3 2 1 1 0 0 0 0 0 1 1 1 1 1 1 1 0 0 1 1 2 3 3
1 1 1 1 1 1 1 2 2 1 1 1 1 1 1 2 2 2 2 2 2 2 1 1 1 0 0 0 0 1 1 1 1 1 1 1 0 0 0 0 1 1 2
1 1 1 1 1 1 2 2 2 1 1 1 1 1 1 1 1 1 1 1 1 1 1 1 1 1 0 0 0 0 0 0 0 0 0 0 0 0 0 0 0 0 1
1 1 1 1 2 2 2 2 2 2 1 1 1 1 1 1 1 1 1 1 1 1 1 1 1 1 0 0 0 0 0 0 0 0 0 0 0 0 0 0 0 0 0
2 2 2 2 2 2 2 2 2 2 2 2 1 1 1 1 1 1 1 1 1 1 1 1 1 1 1 1 0 0 0 0 1 0 0 0 0 0 0 0 0 0 0
2 2 2 2 2 2 2 2 2 2 2 2 1 1 1 1 1 1 1 1 1 1 1 1 1 1 1 1 1 0 0 1 1 1 1 1 0 0 0 0 0 0 0
2 2 2 2 2 2 2 2 2 2 2 2 1 1 1 1 2 2 2 1 1 1 1 1 1 1 1 1 1 1 0 1 1 1 1 1 1 1 0 0 0 0 0
2 2 2 2 2 2 1 1 2 2 2 2 2 2 2 2 2 3 2 1 1 1 1 1 1 1 1 1 1 1 1 1 1 1 1 1 1 1 0 0 0 0 0
3 3 3 3 3 2 2 1 2 2 2 2 2 2 3 3 4 4 3 2 2 1 1 1 1 1 1 1 1 1 1 1 1 1 0 0 0 0 0 0 0 0 0
5 5 4 4 4 3 2 1 2 2 3 3 3 3 4 4 5 5 5 4 3 2 1 1 1 1 1 1 1 1 1 1 1 1 0 0 0 0 0 0 0 0 0
6 5 5 6 6 5 3 1 2 3 4 4 4 4 4 4 5 5 6 6 5 3 2 1 0 0 0 0 0 1 1 1 1 1 0 0 0 0 0 0 0 0 0
6 5 5 6 7 6 4 2 2 4 5 5 4 4 4 4 4 4 5 6 5 4 2 1 0 0 0 0 0 0 1 1 1 1 1 1 0 0 0 0 0 0 0
Wind_Speed
0 0 1 1 1 1 1 0 1 1 0 0 0 1 1 2 2 2 2 6 7 7 8 8 9 9 10 9 9 9 9 9 9 9 8 8 8 8 8 8 8 8 8
1 0 1 1 1 1 1 1 0 0 0 0 1 0 1 1 1 2 2 3 6 7 7 8 9 9 9 9 10 10 10 9 9 9 9 8 8 8 8 7 7 8 8
1 1 1 1 1 1 1 1 1 1 1 0 0 0 0 1 1 1 1 1 2 5 6 6 7 8 9 9 9 10 9 9 9 9 9 9 8 8 8 8 8 8 8
1 1 1 0 1 1 1 0 1 1 1 0 0 1 0 0 1 1 1 1 1 2 3 4 5 6 8 9 9 9 9 9 8 8 8 9 9 9 9 9 9 9 9
1 1 1 0 1 1 1 0 1 0 0 1 0 0 1 0 1 1 1 1 1 1 1 2 3 4 6 8 8 7 7 8 8 8 8 8 9 8 8 8 9 9 9
1 1 1 1 1 1 1 1 1 1 0 0 0 1 1 1 0 0 1 1 1 1 1 1 1 2 4 5 5 6 7 7 7 8 8 8 8 8 8 9 8 9 9
1 1 1 1 1 1 0 1 0 1 1 1 1 1 2 1 1 1 1 0 1 1 1 1 1 1 1 2 3 4 5 6 7 7 8 7 7 7 8 8 8 9 9
1 2 1 1 1 1 1 1 1 1 1 2 1 1 2 2 2 1 1 1 1 1 1 1 1 1 2 2 2 4 5 6 7 7 8 8 8 7 8 8 9 9 10
1 1 1 1 1 0 0 1 0 1 0 1 1 2 1 1 2 2 1 1 1 1 1 1 1 2 2 2 2 3 5 5 6 7 7 8 7 7 7 7 8 8 9
1 1 1 1 0 0 0 1 1 0 1 0 0 0 1 1 1 2 2 1 1 1 2 2 2 2 2 2 3 4 5 5 5 6 6 6 6 6 7 8 8 8 8
1 1 1 1 0 0 0 1 1 0 1 1 1 1 1 0 1 1 2 2 2 2 2 2 2 2 3 3 3 4 5 5 5 5 5 5 5 5 6 7 8 8 8
1 1 0 0 0 0 1 1 0 0 0 0 0 0 1 1 1 1 2 2 2 2 2 1 2 2 2 2 4 5 5 5 5 5 5 5 5 6 6 7 7 7 8
0 1 0 0 1 1 1 0 0 0 0 0 1 1 1 1 1 2 2 2 2 2 2 1 2 2 2 1 3 5 5 5 5 5 5 5 5 5 5 5 6 6 7
2 1 1 1 1 1 1 0 0 1 0 0 1 1 1 1 1 2 2 2 1 2 2 2 1 1 2 2 3 4 3 4 4 4 4 4 5 5 5 5 5 5 6
1 1 1 1 1 1 1 1 0 1 0 1 1 1 1 2 1 2 2 2 2 2 2 2 2 2 2 2 2 2 2 3 3 4 4 5 5 5 5 5 5 5 5
1 1 1 1 1 1 1 1 1 1 1 1 1 1 2 2 1 1 2 2 3 3 3 2 2 2 2 2 2 2 2 3 3 4 4 5 6 6 6 5 5 6 6
2 2 2 2 2 2 1 1 2 1 1 1 1 2 2 2 2 1 2 2 2 3 3 3 2 2 2 2 2 2 2 2 3 4 4 5 5 5 6 6 6 6 7
2 2 2 2 2 2 2 2 2 2 2 2 2 2 3 2 2 2 2 2 2 3 3 4 2 2 2 3 2 3 2 2 3 4 4 3 4 4 5 5 6 6 6
2 2 2 2 3 3 3 3 3 2 2 2 2 2 3 2 3 2 2 2 2 2 3 3 3 2 2 2 2 2 3 2 3 3 3 3 4 4 5 5 6 6 6
2 2 2 2 3 3 3 2 2 2 2 2 2 2 3 3 3 3 2 3 2 2 2 3 3 2 2 2 2 2 2 2 3 3 3 3 4 4 5 5 5 6 6
2 2 2 2 2 2 2 2 2 2 2 2 2 2 3 3 3 2 2 2 2 2 2 2 2 2 2 2 2 2 3 3 3 2 2 2 2 2 3 4 5 5 6
1 1 2 2 2 2 2 2 2 2 2 2 2 2 3 3 3 4 4 3 3 3 3 2 3 3 4 3 2 3 2 2 3 2 2 3 2 3 3 3 4 5 5
1 1 2 2 2 3 3 2 2 2 2 2 2 2 3 3 3 3 4 4 4 4 4 4 4 5 4 4 3 3 3 4 4 2 2 3 2 3 3 3 5 5 5
1 2 2 2 2 3 3 2 2 1 2 2 3 3 3 4 3 2 2 3 3 4 4 3 4 5 5 4 4 4 4 4 4 3 3 3 3 3 3 3 4 5 5
2 2 2 2 2 3 3 2 1 1 2 3 3 3 3 4 5 3 2 3 4 4 4 4 5 5 6 5 4 2 2 2 3 3 2 3 2 2 3 3 3 4 4
2 2 2 2 2 3 3 2 1 1 2 2 3 3 4 4 5 3 3 3 4 5 4 4 4 4 3 3 3 4 4 3 3 3 2 3 2 1 3 2 2 2 3
Wind_Direction
123 40 10 11 19 22 27 13 23 30 350 351 247 192 201 220 218 217 231 229 227 223 220 217 214 210 208 210 210 211 208 206 204 203 205 207 207 207 210 211 209 210 213
141 80 20 16 8 15 25 40 39 70 73 86 333 287 240 226 235 234 234 236 235 229 226 223 217 215 211 212 214 214 213 213 207 205 207 209 208 208 213 217 216 217 216
156 124 53 14 5 24 39 34 25 49 60 84 320 292 259 254 240 229 232 240 243 238 235 227 217 212 210 212 214 216 216 214 209 209 210 211 210 213 216 219 220 219 217
155 130 108 31 26 51 48 57 41 30 22 35 327 304 314 262 241 210 204 239 242 247 251 238 224 217 214 215 217 218 218 215 212 211 213 215 216 219 219 220 222 220 219
154 142 130 79 77 77 52 356 77 95 4 346 310 333 332 312 264 227 211 236 237 240 253 246 238 233 226 222 219 219 221 219 214 214 217 218 217 218 221 223 224 223 222
147 129 102 70 70 67 32 39 72 67 60 325 16 28 10 4 19 320 256 255 242 242 242 257 262 255 243 235 227 224 228 227 223 223 224 223 222 221 223 225 224 223 225
134 116 94 86 82 85 29 26 66 42 33 43 62 18 359 8 5 316 300 296 284 266 249 241 241 253 266 254 234 229 237 239 232 228 226 226 227 227 226 226 224 222 224
147 140 128 128 114 81 33 23 60 66 32 54 93 78 5 355 347 329 315 277 300 319 287 243 230 226 235 236 235 233 238 245 241 237 233 232 231 229 228 230 226 222 224
111 115 139 137 128 138 352 352 67 129 98 37 73 124 128 262 316 330 326 329 332 274 269 253 228 234 232 231 235 239 237 241 246 245 241 238 232 229 228 229 227 226 229
51 96 129 133 130 72 349 331 73 142 143 141 66 83 148 168 177 314 327 328 311 289 275 260 246 235 232 234 234 233 239 241 248 251 249 247 242 237 236 236 234 234 234
18 31 115 139 147 220 330 7 34 71 165 185 190 166 152 123 163 200 289 314 324 295 278 259 254 254 243 234 237 240 238 238 243 247 251 253 251 246 244 240 237 238 239
355 356 63 119 189 243 287 305 359 29 34 219 262 190 173 171 195 196 244 280 294 295 294 277 266 266 252 244 246 245 237 237 237 240 248 252 254 252 253 249 242 244 246
273 293 294 265 261 260 268 292 36 342 313 284 257 258 239 231 200 187 211 260 281 296 301 288 262 265 263 257 256 252 239 234 237 244 249 253 254 255 257 258 251 253 256
224 248 244 253 276 289 298 262 211 248 145 249 265 256 256 253 221 201 201 207 271 291 287 282 287 269 282 271 265 259 252 243 242 245 252 254 255 257 255 256 259 259 259
213 218 227 264 278 279 265 212 205 243 211 237 259 262 266 270 243 230 219 205 204 253 278 271 271 283 283 269 282 264 258 249 245 244 248 249 246 248 246 248 253 252 250
214 209 232 253 272 276 256 214 227 239 203 244 244 256 267 273 268 246 230 221 213 217 250 261 259 289 293 291 296 275 264 267 257 253 254 253 249 245 240 239 243 245 243
204 208 218 230 245 257 250 218 226 220 222 257 274 267 277 281 275 274 244 224 222 216 243 269 259 277 270 285 298 285 271 266 268 260 265 261 257 248 241 243 241 241 240
215 216 217 224 236 244 239 225 233 226 223 246 264 269 280 281 279 276 259 246 237 223 227 261 273 265 262 269 276 276 285 281 275 270 265 264 260 255 248 248 244 244 243
224 229 223 232 242 243 237 234 228 229 231 240 250 257 270 271 276 273 263 257 252 244 231 244 268 263 268 273 284 285 288 287 282 271 258 254 258 259 256 257 252 248 244
224 235 240 246 248 242 237 238 234 230 236 245 253 259 263 256 259 263 258 256 255 257 250 248 261 268 272 276 264 280 293 289 286 282 278 269 262 261 259 256 250 247 241
232 240 243 256 263 246 242 239 233 232 237 257 273 274 270 277 282 275 275 261 250 252 258 260 266 270 273 269 265 266 276 291 278 255 263 267 261 265 270 264 251 242 238
235 242 255 257 267 273 283 248 221 221 228 243 270 289 288 288 299 301 297 284 259 245 247 248 261 262 266 260 260 252 259 274 278 240 245 273 256 264 270 266 263 248 238
234 253 273 275 278 288 306 295 253 212 231 240 251 275 293 304 300 289 298 306 295 281 254 236 247 255 257 246 242 253 249 249 258 258 242 270 266 266 268 269 261 249 243
234 243 256 269 275 291 309 296 275 213 244 257 255 253 266 285 289 287 287 302 296 286 274 258 246 256 258 250 233 238 252 266 270 253 219 247 255 264 276 271 258 242 235
242 254 260 262 265 285 301 286 238 228 253 271 275 273 269 276 292 296 284 293 301 301 293 287 275 272 270 263 247 231 236 250 273 265 215 230 249 269 275 265 264 254 242
230 247 267 273 265 277 293 283 224 215 251 278 294 293 285 282 289 283 263 268 282 290 299 301 300 303 289 272 249 228 230 239 258 261 208 212 237 259 275 255 261 272 261